Location: Byszew
(52.1813°N, 19.2693°E)
Time: 00:14:24
(UTC+00:00)

Cosmos 2322 Rocket - Pass Details

Date: 27 June 2021
Orbit: 833 x 850 km, 71.0° (Epoch: 29 July)

Event Time Altitude Azimuth Distance (km) Brightness Sun altitude
Rises 20:47:31 0° 279° (W) 3,420 5.9 -10.2°
Reaches altitude 10° 20:51:05 10° 301° (WNW) 2,485 5.6 -10.5°
Maximum altitude 20:54:25 16° 337° (NNW) 2,117 5.7 -10.7°
Drops below altitude 10° 20:57:44 10° 13° (NNE) 2,486 5.5 -10.9°
Sets 21:01:18 0° 36° (NE) 3,421 5.8 -11.1°
